User: anonymous   Login
Location: Pulvis Stellarum Observatory
(41.6962°N, 71.4263°W)
Time: 23:20:38
(UTC-05:00)
Language:

Cosmos 1758 - Orbit

View from above orbital plane
View from above orbital plane
View from above satellite
View from above satellite

Ground track
Ground track

The orbit data is extracted from the following two-line orbital elements,

1 16791U 86046A   15024.88599359  .00001572  00000-0  11668-3 0  2360
2 16791 082.4720 162.9386 0017839 177.3700 182.7622 15.02265560554292
Epoch (UTC): 24 January 2015 21:15:49
Eccentricity: 0.0017839
inclination: 82.4720°
perigee height: 547 km
apogee height: 572 km
right ascension of ascending node: 162.9386°
argument of perigee: 177.3700°
revolutions per day: 15.02265560
mean anomaly at epoch: 182.7622°
orbit number at epoch: 55429

The dashed part of the orbit path shows where the satellite is in the earth's shadow,  

DLR